Location: Ocean City
(38.3360°N, 75.0850°W)
Time: 14:51:38
(UTC-04:00)

STARS - Pass Details

Date: 28 May 2019
Orbit: 625 x 640 km, 98.3° (Epoch: 16 June)

Event Time Altitude Azimuth Distance (km) Brightness Sun altitude
Rises 21:50:29 0° 355° (N) 2,941 ? -15.8°
Reaches altitude 10° 21:53:16 10° 337° (NNW) 2,024 ? -16.1°
Maximum altitude 21:56:13 18° 294° (WNW) 1,556 ? -16.5°
Drops below altitude 10° 21:59:10 10° 252° (WSW) 2,009 ? -16.9°
Sets 22:01:55 0° 233° (SW) 2,908 ? -17.3°
